Somerville, NJ

1:30 AM EST on November 21, 2019 (GMT -0500)
Somerset

Weather History for KSMQ - September, 2019

Change the Weather History Date:

Saturday, September 7, 2019

  Actual Average Record
Temperature  
Mean Temperature 66 °F -  
Max Temperature 78 °F 79 °F 97 °F (1983)
Min Temperature 53 °F 55 °F 41 °F (1976)
Growing Degree Days 16 (Base 50)    
Moisture  
Dew Point 54 °F    
Average Humidity 73    
Maximum Humidity 96    
Minimum Humidity 40    
Precipitation  
Precipitation 0.00 in - - ()
Sea Level Pressure  
Sea Level Pressure 29.82 in    
Wind  
Wind Speed 5 mph (NNW)    
Max Wind Speed 12 mph    
Max Gust Speed 16 mph    
Visibility 10 miles    
Events      
Averages and records for this station are not official NWS values.
T = Trace of Precipitation, MM = Missing Value Source: NWS Daily Summary

Daily Weather History Graph

Daily Weather History Graph

Search for Another Location

Airport or City:

Astronomy

Sep. 07, 2019 Rise Set
Actual Time 6:31 AM EDT 7:21 PM EDT
Civil Twilight 6:03 AM EDT 7:49 PM EDT
Nautical Twilight 5:30 AM EDT 8:21 PM EDT
Astronomical Twilight 4:56 AM EDT 8:55 PM EDT
Moon 3:36 PM EDT (9/7) 12:20 AM EDT (9/7)
Length of Visible Light 13h 45m
Length of Day
12h 50m
Waxing Gibbous, 65% of the Moon is Illuminated
Sep 7
Waxing Gibbous
Sep 14
Full
Sep 21
Last Quarter
Sep 28
New
Oct 5
First Quarter

Hourly Weather History & Observations

Time (EDT) Temp. Dew Point Humidity Pressure Visibility Wind Dir Wind Speed Gust Speed Precip Events Conditions
12:36 AM 60.1 °F 55.0 °F 83% 29.76 in 10.0 mi North 6.9 mph - 0.00 in   Overcast
12:53 AM 60.1 °F 55.0 °F 83% 29.76 in 10.0 mi North 6.9 mph - 0.00 in   Overcast
1:53 AM 59.0 °F 55.0 °F 87% 29.75 in 10.0 mi North 5.8 mph - N/A   Mostly Cloudy
2:53 AM 55.9 °F 54.0 °F 93% 29.76 in 10.0 mi Calm Calm - N/A   Partly Cloudy
3:53 AM 55.9 °F 53.1 °F 90% 29.76 in 10.0 mi NW 5.8 mph - N/A   Clear
4:53 AM 55.9 °F 53.1 °F 90% 29.77 in 10.0 mi NW 5.8 mph - N/A   Clear
5:53 AM 55.0 °F 52.0 °F 89% 29.79 in 10.0 mi NNW 4.6 mph - N/A   Clear
6:53 AM 53.1 °F 52.0 °F 96% 29.81 in 8.0 mi NW 3.5 mph - N/A   Clear
7:53 AM 57.9 °F 53.1 °F 84% 29.83 in 10.0 mi Calm Calm - N/A   Clear
8:53 AM 62.1 °F 53.1 °F 72% 29.83 in 10.0 mi Variable 3.5 mph - N/A   Clear
9:53 AM 66.0 °F 54.0 °F 65% 29.82 in 10.0 mi Variable 4.6 mph - N/A   Clear
10:53 AM 70.0 °F 53.1 °F 55% 29.83 in 10.0 mi NW 11.5 mph - N/A   Clear
11:53 AM 72.0 °F 53.1 °F 51% 29.82 in 10.0 mi NW 6.9 mph 16.1 mph N/A   Clear
12:53 PM 73.0 °F 54.0 °F 51% 29.81 in 10.0 mi Variable 5.8 mph - N/A   Mostly Cloudy
1:53 PM 75.9 °F 51.1 °F 42% 29.81 in 10.0 mi NW 10.4 mph - N/A   Mostly Cloudy
2:53 PM 78.1 °F 52.0 °F 40% 29.80 in 10.0 mi Variable 5.8 mph - N/A   Partly Cloudy
3:53 PM 75.0 °F 54.0 °F 48% 29.81 in 10.0 mi Calm Calm - N/A   Overcast
4:53 PM 75.9 °F 54.0 °F 46% 29.81 in 10.0 mi Variable 5.8 mph - N/A   Mostly Cloudy
5:53 PM 75.9 °F 55.0 °F 48% 29.83 in 10.0 mi NW 10.4 mph - N/A   Overcast
6:53 PM 71.1 °F 55.9 °F 59% 29.84 in 10.0 mi Calm Calm - N/A   Scattered Clouds
7:53 PM 63.0 °F 57.9 °F 84% 29.86 in 10.0 mi Calm Calm - N/A   Mostly Cloudy
8:53 PM 60.1 °F 57.0 °F 90% 29.89 in 10.0 mi Calm Calm - N/A   Scattered Clouds
9:53 PM 60.1 °F 57.9 °F 93% 29.89 in 10.0 mi Calm Calm - N/A   Mostly Cloudy
10:53 PM 60.1 °F 57.0 °F 90% 29.90 in 10.0 mi Calm Calm - N/A   Overcast
11:53 PM 59.0 °F 57.0 °F 93% 29.91 in 10.0 mi Calm Calm - N/A   Clear